Simultaneous Nadir Overpasses (SNOs) Predictions

Prediction of SNOs between AQUA and METOP-A Satellite Orbit:

Table of predicted SNOs for the next 14.0 days since TLE Epoch: 1/8/2018
Index Date (AQUA) Time (AQUA) Lat,Lon (AQUA) SZA (AQUA ) Date (METOP-A) Time (METOP-A) Lat,Lon (METOP-A) SZA (METOP-A ) Distance(km) Time Diff (sec)
1 01/08/2018 21:41:55 74.09,-151.85 96.30 01/08/2018 21:40:53 74.10,-151.74 96.31 3.43 62
2 01/08/2018 22:31:21 -74.14, 15.70 83.66 01/08/2018 22:31:34 -74.14, 15.70 83.66 0.68 13
3 01/08/2018 23:20:57 74.55,-177.65 96.78 01/08/2018 23:22:06 74.52,-176.01 96.68 48.75 69
4 01/11/2018 17:16:11 74.09, -85.40 95.89 01/11/2018 17:15:12 74.09, -85.34 95.90 1.90 59
5 01/11/2018 18:05:37 -74.13, 82.15 84.08 01/11/2018 18:05:53 -74.14, 82.09 84.07 1.92 16
6 01/11/2018 18:55:15 74.65,-111.46 96.48 01/11/2018 18:56:22 74.66,-109.23 96.40 65.58 67
7 01/14/2018 12:50:27 74.09, -18.97 95.42 01/14/2018 12:49:31 74.09, -18.95 95.43 0.91 56
8 01/14/2018 13:39:53 -74.13, 148.59 84.55 01/14/2018 13:40:12 -74.13, 148.49 84.54 3.05 19
9 01/14/2018 14:29:33 74.76, -45.29 96.13 01/14/2018 14:30:39 74.75, -42.58 96.02 79.22 66
10 01/17/2018 08:24:42 74.11, 47.44 94.92 01/17/2018 08:23:49 74.08, 47.44 94.90 2.71 53
11 01/17/2018 09:14:08 -74.14,-144.99 85.06 01/17/2018 09:14:29 -74.17,-145.00 85.03 3.64 21
12 01/17/2018 10:03:50 74.87, 20.86 95.74 01/17/2018 10:04:55 74.84, 24.07 95.58 93.33 65
13 01/20/2018 03:58:58 74.13, 113.84 94.36 01/20/2018 03:58:07 74.12, 113.95 94.37 3.35 51
14 01/20/2018 04:48:24 -74.16, -78.59 85.61 01/20/2018 04:48:48 -74.17, -78.62 85.61 1.24 24




NCC Satellite Simultaneous Nadir Overpasses (SNOs) Prediction Service
